Kokomo, IN

3:55 AM EST on December 11, 2019 (GMT -0500)
Kokomo Municipal

Weather History for KOKK - November, 2019

Change the Weather History Date:

Sunday, November 17, 2019

  Actual Average (WUND) Record (WUND)
Temperature  
Mean Temperature 31 °F -  
Max Temperature 41 °F - - (-1)
Min Temperature 21 °F - - (-1)
Degree Days  
Heating Degree Days 34    
Moisture  
Dew Point 28 °F    
Average Humidity 86    
Maximum Humidity 100    
Minimum Humidity 65    
Precipitation  
Precipitation 0.00 in - - ()
Sea Level Pressure  
Sea Level Pressure 30.04 in    
Wind  
Wind Speed 4 mph (ESE)    
Max Wind Speed 8 mph    
Max Gust Speed -    
Visibility 9 miles    
Events      
Averages and records for this station are not official NWS values.
T = Trace of Precipitation, MM = Missing Value Source: NWS Daily Summary

Daily Weather History Graph

Daily Weather History Graph

Search for Another Location

Airport or City:

Astronomy

Nov. 17, 2019 Rise Set
Actual Time 6:32 AM CST 4:25 PM CST
Civil Twilight 6:03 AM CST 4:54 PM CST
Nautical Twilight 5:30 AM CST 5:27 PM CST
Astronomical Twilight 4:57 AM CST 6:00 PM CST
Moon 9:00 PM CST (11/17) 11:18 AM CST (11/17)
Length of Visible Light 10h 51m
Length of Day
9h 52m
Waning Gibbous, 73% of the Moon is Illuminated
Nov 17
Waning Gibbous
Nov 19
Last Quarter
Nov 26
New
Dec 4
First Quarter
Dec 11
Full

Hourly Weather History & Observations

Time (CST) Temp. Windchill Dew Point Humidity Pressure Visibility Wind Dir Wind Speed Gust Speed Precip Events Conditions
12:56 AM 24.1 °F 19.7 °F 23.0 °F 96% 30.23 in 10.0 mi NE 3.5 mph - N/A   Clear
1:56 AM 24.1 °F 18.2 °F 21.9 °F 91% 30.20 in 10.0 mi East 4.6 mph - N/A   Clear
2:56 AM 23.0 °F - 23.0 °F 100% 30.20 in 8.0 mi Calm Calm - N/A   Clear
3:56 AM 21.9 °F 15.7 °F 21.0 °F 96% 30.19 in 7.0 mi East 4.6 mph - N/A   Clear
4:56 AM 23.0 °F 15.8 °F 21.9 °F 96% 30.17 in 7.0 mi East 5.8 mph - N/A   Clear
5:56 AM 23.0 °F - 21.9 °F 96% 30.17 in 5.0 mi Calm Calm - N/A   Clear
6:56 AM 23.0 °F 17.0 °F 23.0 °F 100% 30.14 in 5.0 mi East 4.6 mph - N/A   Clear
7:56 AM 27.0 °F 21.6 °F 27.0 °F 100% 30.14 in 10.0 mi SE 4.6 mph - N/A   Clear
8:56 AM 33.1 °F 27.7 °F 28.0 °F 82% 30.13 in 10.0 mi SE 5.8 mph - N/A   Clear
9:56 AM 36.0 °F 31.1 °F 30.0 °F 79% 30.11 in 10.0 mi SSE 5.8 mph - N/A   Clear
10:56 AM 39.9 °F 36.7 °F 28.9 °F 65% 30.08 in 10.0 mi WSW 4.6 mph - N/A   Clear
11:56 AM 41.0 °F 35.8 °F 30.9 °F 67% 30.02 in 10.0 mi ESE 8.1 mph - N/A   Clear
12:56 PM 41.0 °F 38.0 °F 30.0 °F 65% 30.01 in 10.0 mi South 4.6 mph - N/A   Clear
1:56 PM 41.0 °F 39.0 °F 30.9 °F 67% 29.99 in 10.0 mi ESE 3.5 mph - N/A   Clear
2:56 PM 41.0 °F 37.1 °F 30.9 °F 67% 29.99 in 10.0 mi SSE 5.8 mph - N/A   Mostly Cloudy
3:56 PM 39.9 °F 35.1 °F 32.0 °F 73% 29.96 in 10.0 mi ESE 6.9 mph - N/A   Mostly Cloudy
4:56 PM 39.0 °F 36.8 °F 33.1 °F 79% 29.96 in 10.0 mi ESE 3.5 mph - N/A   Overcast
5:56 PM 37.0 °F - 33.1 °F 86% 29.96 in 10.0 mi Calm Calm - N/A   Scattered Clouds
6:56 PM 35.1 °F - 30.9 °F 85% 29.94 in 10.0 mi Calm Calm - N/A   Clear
7:56 PM 32.0 °F 25.6 °F 28.9 °F 88% 29.92 in 8.0 mi East 6.9 mph - N/A   Clear
8:56 PM 32.0 °F 27.5 °F 30.0 °F 92% 29.91 in 10.0 mi ESE 4.6 mph - N/A   Clear
9:56 PM 30.9 °F - 30.0 °F 96% 29.89 in 8.0 mi Calm Calm - N/A   Scattered Clouds
10:56 PM 30.0 °F - 28.9 °F 96% 29.88 in 9.0 mi Calm Calm - N/A   Clear
11:56 PM 30.0 °F - 30.0 °F 100% 29.86 in 7.0 mi Calm Calm - N/A   Mostly Cloudy